Gore Bay, Ontario

6:15 AM EDT on May 21, 2018 (GMT -0400)
Gore Bay-Manitoulin

Weather History for CYZE - August, 2013

Change the Weather History Date:

Monday, August 26, 2013

  Actual Average Record
Temperature  
Mean Temperature 71 °F -  
Max Temperature 80 °F 65 °F 82 °F (2012)
Min Temperature 62 °F 50 °F 40 °F (2017)
Cooling Degree Days 6    
Growing Degree Days 21 (Base 50)    
Moisture  
Dew Point 67 °F    
Average Humidity 92    
Maximum Humidity 100    
Minimum Humidity 70    
Precipitation  
Precipitation 0.39 in 0.12 in - ()
Sea Level Pressure  
Sea Level Pressure 29.97 in    
Wind  
Wind Speed 6 mph ()    
Max Wind Speed 21 mph    
Max Gust Speed 29 mph    
Visibility 6.0 miles    
Events Rain , Thunderstorm    
Averages and records for this station are not official NWS values.
T = Trace of Precipitation, MM = Missing Value Source: Averaged Metar Reports

Daily Weather History Graph

Daily Weather History Graph

Search for Another Location

Airport or City:

Astronomy

Aug. 26, 2013 Rise Set
Actual Time 6:44 AM EDT 8:19 PM EDT
Civil Twilight 6:12 AM EDT 8:50 PM EDT
Nautical Twilight 5:34 AM EDT 9:28 PM EDT
Astronomical Twilight 4:53 AM EDT 10:09 PM EDT
Moon 11:06 PM EDT (8/26) 1:06 PM EDT (8/26)
Length of Visible Light 14h 37m
Length of Day
13h 35m
Waning Gibbous, 67% of the Moon is Illuminated
Aug 26
Waning Gibbous
Aug 28
Last Quarter
Sep 5
New
Sep 12
First Quarter
Sep 19
Full

Hourly Weather History & Observations

Time (EDT) Temp. Heat Index Dew Point Humidity Pressure Visibility Wind Dir Wind Speed Gust Speed Precip Events Conditions
12:00 AM 69.8 °F - 66.2 °F 88% 29.98 in 9.0 mi SSE 11.5 mph 17.3 mph N/A   Mostly Cloudy
12:11 AM 68.0 °F - 66.2 °F 94% 29.99 in 9.0 mi South 6.9 mph - N/A Thunderstorm Thunderstorm
12:28 AM 68.0 °F - 66.2 °F 94% 29.98 in 9.0 mi North - - N/A   Overcast
12:30 AM 68.0 °F - 66.2 °F 94% 29.98 in 9.0 mi SSE 5.8 mph - N/A Thunderstorm Overcast
12:33 AM 68.0 °F - 66.2 °F 94% 29.98 in 9.0 mi SSE 4.6 mph - N/A Thunderstorm Thunderstorm
12:40 AM 69.8 °F - 66.2 °F 88% 30.01 in 8.0 mi Variable 5.8 mph - N/A Rain , Thunderstorm Light Thunderstorms and Rain
12:42 AM 68.0 °F - 66.2 °F 94% 30.01 in 4.0 mi Variable 3.5 mph - N/A Rain , Thunderstorm Light Thunderstorms and Rain
12:43 AM 68.0 °F - 66.2 °F 94% 30.00 in 2.5 mi Variable 2.3 mph - N/A Rain , Thunderstorm Heavy Thunderstorms and Rain
12:44 AM 68.0 °F - 66.2 °F 94% 30.00 in 1.8 mi Calm Calm - N/A Rain , Thunderstorm Heavy Thunderstorms and Rain
12:45 AM 68.0 °F - 66.2 °F 94% 30.00 in 1.2 mi Calm Calm - N/A Rain , Thunderstorm Heavy Thunderstorms and Rain
12:49 AM 68.0 °F - 66.2 °F 94% 30.00 in 1.2 mi Variable 3.5 mph - N/A Rain , Thunderstorm Heavy Thunderstorms and Rain
12:50 AM 68.0 °F - 66.2 °F 94% 30.00 in 1.2 mi Variable 3.5 mph - N/A Rain , Thunderstorm Light Thunderstorms and Rain
12:54 AM 68.0 °F - 66.2 °F 94% 29.99 in 1.2 mi ESE 5.8 mph - N/A Rain , Thunderstorm Heavy Thunderstorms and Rain
12:55 AM 68.0 °F - 66.2 °F 94% 29.99 in 1.8 mi ESE 5.8 mph - N/A Rain , Thunderstorm Heavy Thunderstorms and Rain
12:56 AM 68.0 °F - 66.2 °F 94% 29.99 in 2.0 mi ESE 4.6 mph - N/A Rain , Thunderstorm Thunderstorms and Rain
12:59 AM 68.0 °F - 66.2 °F 94% 29.99 in 2.5 mi East 3.5 mph - N/A Rain , Thunderstorm Light Thunderstorms and Rain
1:00 AM 68.0 °F - 66.2 °F 94% 29.99 in 2.5 mi East 3.5 mph - N/A Rain , Thunderstorm Light Thunderstorms and Rain
1:01 AM 68.0 °F - 66.2 °F 94% 29.99 in 3.0 mi East 3.5 mph - N/A Rain , Thunderstorm Light Thunderstorms and Rain
1:04 AM 68.0 °F - 66.2 °F 94% 29.99 in 6.0 mi ESE 3.5 mph - N/A Rain , Thunderstorm Light Thunderstorms and Rain
1:08 AM 68.0 °F - 66.2 °F 94% 29.99 in 8.0 mi ESE 3.5 mph - N/A Thunderstorm Thunderstorm
1:10 AM 68.0 °F - 66.2 °F 94% 29.99 in 8.0 mi East 3.5 mph - N/A Thunderstorm Mostly Cloudy
1:29 AM 69.8 °F - 68.0 °F 94% 29.97 in 9.0 mi South 8.1 mph - N/A   Partly Cloudy
1:44 AM 69.8 °F - 68.0 °F 94% 29.98 in 9.0 mi South 5.8 mph - N/A Thunderstorm Scattered Clouds
1:56 AM 69.8 °F - 68.0 °F 94% 29.97 in 7.0 mi South 5.8 mph - N/A Thunderstorm Thunderstorm
2:00 AM 69.8 °F - 68.0 °F 94% 29.97 in 6.0 mi South 5.8 mph - N/A Thunderstorm Mostly Cloudy
2:03 AM 69.8 °F - 68.0 °F 94% 29.97 in 6.0 mi South 5.8 mph - N/A Rain , Thunderstorm Light Thunderstorms and Rain
2:13 AM 69.8 °F - 68.0 °F 94% 29.97 in 5.0 mi SW 6.9 mph - N/A Rain , Thunderstorm Light Thunderstorms and Rain
2:24 AM 69.8 °F - 66.2 °F 88% 29.95 in 6.0 mi SW 6.9 mph - N/A Rain , Thunderstorm Light Thunderstorms and Rain
2:42 AM 69.8 °F - 68.0 °F 94% 29.94 in 6.0 mi WSW 12.7 mph 19.6 mph N/A Rain , Thunderstorm Heavy Thunderstorms and Rain
2:43 AM 69.8 °F - 68.0 °F 94% 29.94 in 6.0 mi WSW 11.5 mph 19.6 mph N/A Rain , Thunderstorm Heavy Thunderstorms and Rain
2:47 AM 69.8 °F - 68.0 °F 94% 29.94 in 7.0 mi WSW 10.4 mph 19.6 mph N/A Rain , Thunderstorm Heavy Thunderstorms and Rain
2:48 AM 69.8 °F - 68.0 °F 94% 29.94 in 7.0 mi SW 9.2 mph 19.6 mph N/A Rain , Thunderstorm Light Thunderstorms and Rain
2:52 AM 69.8 °F - 68.0 °F 94% 29.94 in 7.0 mi SW 6.9 mph - N/A Rain , Thunderstorm Light Rain
3:00 AM 69.8 °F - 68.0 °F 94% 29.96 in 7.0 mi WNW 4.6 mph - N/A Rain , Thunderstorm Light Rain
3:03 AM 69.8 °F - 68.0 °F 94% 29.96 in 7.0 mi WNW 4.6 mph - N/A Rain , Thunderstorm Light Thunderstorms and Rain
3:43 AM 69.8 °F - 68.0 °F 94% 29.95 in 9.0 mi WSW 8.1 mph - N/A Rain Light Rain
3:52 AM 69.8 °F - 68.0 °F 94% 29.94 in 9.0 mi WSW 6.9 mph - N/A   Mostly Cloudy
4:00 AM 69.8 °F - 68.0 °F 94% 29.94 in 9.0 mi SW 9.2 mph - N/A   Mostly Cloudy
5:00 AM 68.0 °F - 66.2 °F 94% 29.94 in 6.0 mi South 5.8 mph - N/A   Clear
5:28 AM 68.0 °F - 66.2 °F 94% 29.93 in 5.0 mi SE 4.6 mph - N/A   Clear
5:33 AM 68.0 °F - 66.2 °F 94% 29.93 in 5.0 mi South 4.6 mph - N/A Thunderstorm Partly Cloudy
5:35 AM 68.0 °F - 68.0 °F 100% 29.93 in 6.0 mi South 4.6 mph - N/A Thunderstorm Partly Cloudy
5:50 AM 68.0 °F - 66.2 °F 94% 29.93 in 9.0 mi South 6.9 mph - N/A   Mostly Cloudy
5:52 AM 68.0 °F - 66.2 °F 94% 29.93 in 8.0 mi South 5.8 mph - N/A Thunderstorm Mostly Cloudy
6:00 AM 68.0 °F - 66.2 °F 94% 29.94 in 7.0 mi South 6.9 mph - N/A Thunderstorm Overcast
6:01 AM 68.0 °F - 66.2 °F 94% 29.94 in 7.0 mi South 6.9 mph - N/A Thunderstorm Thunderstorm
6:18 AM 68.0 °F - 66.2 °F 94% 29.94 in 6.0 mi SSE 10.4 mph - N/A Rain , Thunderstorm Thunderstorms and Rain
6:19 AM 68.0 °F - 66.2 °F 94% 29.94 in 5.0 mi SSE 9.2 mph - N/A Rain , Thunderstorm Thunderstorms and Rain
6:26 AM 68.0 °F - 66.2 °F 94% 29.96 in 3.0 mi South 11.5 mph - N/A Rain , Thunderstorm Heavy Thunderstorms and Rain
6:27 AM 68.0 °F - 66.2 °F 94% 29.96 in 2.2 mi South 12.7 mph - N/A Rain , Thunderstorm Heavy Thunderstorms and Rain
6:33 AM 68.0 °F - 66.2 °F 94% 29.96 in 1.8 mi SSE 8.1 mph - N/A Rain , Thunderstorm Heavy Thunderstorms and Rain
6:34 AM 68.0 °F - 66.2 °F 94% 29.96 in 1.8 mi SE 8.1 mph - N/A Rain , Thunderstorm Light Thunderstorms and Rain
6:37 AM 68.0 °F - 66.2 °F 94% 29.97 in 2.5 mi South 4.6 mph - N/A Rain , Thunderstorm Thunderstorms and Rain
6:38 AM 68.0 °F - 66.2 °F 94% 29.98 in 3.0 mi South 3.5 mph - N/A Rain , Thunderstorm Thunderstorms and Rain
6:48 AM 68.0 °F - 66.2 °F 94% 29.98 in 6.0 mi South 9.2 mph - N/A Rain , Thunderstorm Thunderstorms and Rain
6:55 AM 68.0 °F - 66.2 °F 94% 30.00 in 5.0 mi West 8.1 mph - N/A Rain , Thunderstorm Light Thunderstorms and Rain
6:56 AM 68.0 °F - 66.2 °F 94% 30.01 in 5.0 mi West 8.1 mph - N/A Rain , Thunderstorm Light Thunderstorms and Rain
6:59 AM 68.0 °F - 66.2 °F 94% 30.01 in 4.0 mi West 10.4 mph - N/A Rain , Thunderstorm Thunderstorms and Rain
7:00 AM 68.0 °F - 66.2 °F 94% 30.02 in 3.0 mi West 11.5 mph - N/A Rain , Thunderstorm Thunderstorms and Rain
7:01 AM 68.0 °F - 66.2 °F 94% 30.02 in 3.0 mi West 11.5 mph - N/A Rain , Thunderstorm Thunderstorms and Rain
7:02 AM 68.0 °F - 66.2 °F 94% 30.03 in 2.5 mi West 11.5 mph - N/A Rain , Thunderstorm Heavy Thunderstorms and Rain
7:03 AM 68.0 °F - 66.2 °F 94% 30.03 in 2.5 mi West 10.4 mph - N/A Rain , Thunderstorm Heavy Thunderstorms and Rain
7:04 AM 68.0 °F - 66.2 °F 94% 30.03 in 2.2 mi West 12.7 mph - N/A Rain , Thunderstorm Heavy Thunderstorms and Rain
7:05 AM 68.0 °F - 66.2 °F 94% 30.03 in 2.2 mi West 12.7 mph - N/A Rain , Thunderstorm Heavy Thunderstorms and Rain
7:11 AM 68.0 °F - 66.2 °F 94% 30.02 in 2.2 mi West 10.4 mph - N/A Rain , Thunderstorm Heavy Thunderstorms and Rain
7:12 AM 68.0 °F - 68.0 °F 100% 30.02 in 2.2 mi West 9.2 mph - N/A Rain , Thunderstorm Light Thunderstorms and Rain
7:14 AM 68.0 °F - 68.0 °F 100% 30.01 in 2.5 mi WNW 6.9 mph - N/A Rain , Thunderstorm Thunderstorms and Rain
7:17 AM 68.0 °F - 68.0 °F 100% 30.01 in 3.0 mi NW 10.4 mph 18.4 mph N/A Rain , Thunderstorm Thunderstorms and Rain
7:26 AM 69.8 °F - 68.0 °F 94% 30.01 in 6.0 mi WNW 6.9 mph 18.4 mph N/A Rain , Thunderstorm Light Thunderstorms and Rain
7:39 AM 69.8 °F - 68.0 °F 94% 30.01 in 5.0 mi Variable 2.3 mph - N/A Rain , Thunderstorm Light Thunderstorms and Rain
7:45 AM 69.8 °F - 68.0 °F 94% 30.01 in 4.0 mi Variable 2.3 mph - N/A Rain , Thunderstorm Thunderstorms and Rain
7:52 AM 69.8 °F - 68.0 °F 94% 30.01 in 5.0 mi Variable 4.6 mph - N/A Rain Rain
7:55 AM 69.8 °F - 68.0 °F 94% 30.01 in 6.0 mi South 6.9 mph - N/A Rain Rain
7:59 AM 68.0 °F - 68.0 °F 100% 30.02 in 6.0 mi SSW 6.9 mph - N/A Rain Rain
8:00 AM 65 °F - 64 °F 96% 29.93 in - WSW 4.6 mph - -  
8:00 AM 68.0 °F - 68.0 °F 100% 30.03 in 6.0 mi SSW 5.8 mph - N/A Rain Rain
8:01 AM 68.0 °F - 68.0 °F 100% 30.02 in 7.0 mi SSW 5.8 mph - N/A Rain Rain
8:09 AM 68.0 °F - 68.0 °F 100% 30.01 in 6.0 mi SSW 2.3 mph - N/A Rain , Thunderstorm Rain
8:14 AM 68.0 °F - 68.0 °F 100% 30.01 in 5.0 mi SSW 3.5 mph - N/A Rain , Thunderstorm Rain
8:26 AM 68.0 °F - 68.0 °F 100% 29.99 in 5.0 mi SSE 4.6 mph - N/A Rain , Thunderstorm Light Rain
8:36 AM 68.0 °F - 68.0 °F 100% 29.95 in 4.0 mi East 8.1 mph - N/A Rain Light Rain
8:56 AM 68.0 °F - 68.0 °F 100% 29.92 in 6.0 mi NE 6.9 mph - N/A Rain Light Rain
9:00 AM 68.0 °F - 68.0 °F 100% 29.91 in 6.0 mi ENE 6.9 mph - N/A Rain Light Rain
9:24 AM 69.8 °F - 68.0 °F 94% 29.89 in 9.0 mi East 11.5 mph - N/A   Scattered Clouds
10:00 AM 69.8 °F - 68.0 °F 94% 29.92 in 9.0 mi SSW 9.2 mph - N/A   Overcast
10:13 AM 69.8 °F - 68.0 °F 94% 29.96 in 9.0 mi SW 20.7 mph 28.8 mph N/A   Overcast
10:25 AM 68.0 °F - 66.2 °F 94% 30.01 in 9.0 mi West 10.4 mph 21.9 mph N/A   Overcast
10:51 AM 68.0 °F - 66.2 °F 94% 30.01 in 9.0 mi West 4.6 mph - N/A   Overcast
11:00 AM 68.0 °F - 66.2 °F 94% 30.01 in 9.0 mi Variable 2.3 mph - N/A   Overcast
11:11 AM 69.8 °F - 68.0 °F 94% 29.99 in 9.0 mi WSW 4.6 mph - N/A   Overcast
12:00 PM 69.8 °F - 68.0 °F 94% 29.97 in 9.0 mi SW 8.1 mph - N/A   Mostly Cloudy
12:02 PM 71.6 °F - 68.0 °F 88% 29.98 in 9.0 mi SW 8.1 mph - N/A   Mostly Cloudy
12:07 PM 71.6 °F - 68.0 °F 88% 29.98 in 9.0 mi SW 9.2 mph - N/A   Mostly Cloudy
12:16 PM 73.4 °F - 68.0 °F 83% 29.97 in 9.0 mi SW 9.2 mph - N/A   Mostly Cloudy
1:00 PM 75.2 °F - 69.8 °F 83% 29.97 in 9.0 mi WNW 8.1 mph - N/A   Clear
2:00 PM 74 °F - 67 °F 73% 29.89 in - WSW 9.2 mph - -  
2:00 PM 78.8 °F - 69.8 °F 74% 29.95 in 9.0 mi West 6.9 mph - N/A   Clear
3:00 PM 80.6 °F 83.9 °F 69.8 °F 70% 29.93 in 9.0 mi WNW 6.9 mph - N/A   Partly Cloudy
4:00 PM 78.8 °F - 69.8 °F 74% 29.92 in 9.0 mi West 10.4 mph - N/A   Scattered Clouds
5:00 PM 80.6 °F 83.9 °F 69.8 °F 70% 29.91 in 9.0 mi WNW 10.4 mph - N/A   Clear
6:00 PM 80.6 °F 83.9 °F 69.8 °F 70% 29.91 in 9.0 mi West 8.1 mph - N/A   Clear
7:00 PM 78.8 °F - 69.8 °F 74% 29.91 in 9.0 mi West 8.1 mph - N/A   Clear
8:00 PM 74 °F - 69 °F 81% 29.87 in - WSW 3.5 mph - -  
8:00 PM 75.2 °F - 69.8 °F 83% 29.92 in 9.0 mi West 4.6 mph - N/A   Clear
9:00 PM 73.4 °F - 68.0 °F 83% 29.93 in 9.0 mi WSW 4.6 mph - N/A   Clear
10:00 PM 71.6 °F - 68.0 °F 88% 29.93 in 9.0 mi West 4.6 mph - N/A   Clear
11:00 PM 71.6 °F - 68.0 °F 88% 29.94 in 9.0 mi West 5.8 mph - N/A   Clear